EW1392 Weather Reports


time (UTC)temp
C
wind
direction
speed
KPH
gust
KPH
rain 1hr
cm
rain 24hr
cm
rain mn
cm
humidity
%
barometer
mb
20260506214523 22 244 0.0 9.7 0.00 0.00 0.00 39 1011.4
20260506213023 22 250 1.6 16.1 0.00 0.00 0.00 42 1011.4
20260506211521 22 212 0.0 8.0 0.00 0.00 0.00 37 1011.5
20260506210024 22 292 0.0 11.3 0.00 0.00 0.00 39 1011.4
20260506204521 22 246 1.6 6.4 0.00 0.00 0.00 36 1011.2
20260506203025 22 275 0.0 8.0 0.00 0.00 0.00 37 1011.3
20260506201522 23 213 1.6 9.7 0.00 0.00 0.00 36 1011.3
20260506200023 23 77 0.0 8.0 0.00 0.00 0.00 37 1011.3
20260506194519 22 265 1.6 9.7 0.00 0.00 0.00 39 1011.2
20260506193017 23 217 0.0 12.9 0.00 0.00 0.00 37 1011.2
20260506191517 22 298 1.6 11.3 0.00 0.00 0.00 37 1011.3
20260506190016 22 333 0.0 16.1 0.00 0.00 0.00 41 1011.1
20260506184514 22 214 1.6 9.7 0.00 0.00 0.00 45 1011.2
20260506183014 22 218 0.0 8.0 0.00 0.00 0.00 47 1011.4
20260506181512 22 224 1.6 8.0 0.00 0.00 0.00 45 1011.4
20260506180010 22 239 1.6 8.0 0.00 0.00 0.00 47 1011.3
20260506174514 22 315 1.6 8.0 0.00 0.00 0.00 50 1011.3
20260506173006 21 248 0.0 8.0 0.00 0.00 0.00 50 1011.5
20260506171508 21 254 0.0 6.4 0.00 0.00 0.00 53 1011.6
20260506170104 20 279 0.0 6.4 0.00 0.00 0.00 55 1011.7
20260506164559 19 204 0.0 3.2 0.00 0.00 0.00 61 1011.8
20260506163109 18 276 0.0 4.8 0.00 0.00 0.00 63 1012.0
20260506161549 17 200 0.0 0.0 0.00 0.00 0.00 67 1012.0
20260506160044 15 200 0.0 0.0 0.00 0.00 0.00 79 1012.2
20260506154546 13 200 0.0 1.6 0.00 0.00 0.00 89 1012.2
20260506153037 10 200 0.0 0.0 0.00 0.00 0.00 94 1012.3
20260506151541 9 200 0.0 0.0 0.00 0.00 0.00 95 1012.3
20260506150036 7 200 0.0 0.0 0.00 0.00 0.00 96 1012.7
20260506144535 7 200 0.0 0.0 0.00 0.00 0.00 96 1012.8
20260506143034 6 200 0.0 0.0 0.00 0.00 0.00 96 1012.9
20260506141534 6 200 0.0 0.0 0.00 0.00 0.00 95 1012.7
20260506140034 6 200 0.0 0.0 0.00 0.00 0.00 95 1012.6
20260506134531 6 200 0.0 0.0 0.00 0.00 0.00 95 1012.7
20260506133030 6 200 0.0 0.0 0.00 0.00 0.00 95 1012.7
20260506131535 6 200 0.0 0.0 0.00 0.00 0.00 94 1012.6
20260506130028 6 200 0.0 0.0 0.00 0.00 0.00 94 1012.6
20260506124527 6 200 0.0 0.0 0.00 0.00 0.00 94 1012.5
20260506123026 6 200 0.0 0.0 0.00 0.00 0.00 94 1012.5
20260506121524 6 200 0.0 0.0 0.00 0.00 0.00 93 1012.3
20260506120023 6 200 0.0 0.0 0.00 0.00 0.00 92 1012.3
20260506114524 6 200 0.0 0.0 0.00 0.00 0.00 92 1012.2
20260506113020 7 200 0.0 0.0 0.00 0.00 0.00 92 1012.2
20260506111526 7 200 0.0 0.0 0.00 0.00 0.00 93 1012.1
20260506110016 7 200 0.0 0.0 0.00 0.00 0.00 91 1012.0
20260506104515 7 200 0.0 0.0 0.00 0.00 0.00 91 1011.9
20260506103011 7 200 0.0 0.0 0.00 0.00 0.00 91 1011.7
20260506101510 7 200 0.0 0.0 0.00 0.00 0.00 91 1011.7
20260506100008 8 200 0.0 0.0 0.00 0.00 0.00 90 1011.5
20260506094507 8 200 0.0 0.0 0.00 0.00 0.00 90 1011.5
20260506093004 8 200 0.0 0.0 0.00 0.00 0.00 89 1011.5
20260506091505 8 200 0.0 0.0 0.00 0.00 0.00 89 1011.5
20260506090000 8 200 0.0 0.0 0.00 0.00 0.00 88 1011.4
20260506084634 9 200 0.0 0.0 0.00 0.00 0.00 87 1011.4
20260506083059 9 200 0.0 0.0 0.00 0.00 0.00 87 1011.4
20260506081609 10 200 0.0 0.0 0.00 0.00 0.00 86 1011.4
20260506073047 10 200 0.0 0.0 0.00 0.00 0.00 84 1010.9
20260506071544 11 200 0.0 0.0 0.00 0.00 0.00 83 1010.8
20260506061543 12 200 0.0 0.0 0.00 0.00 0.00 78 1010.3
20260506050103 15 200 0.0 0.0 0.00 0.00 0.00 71 1009.8
20260506044542 16 200 0.0 0.0 0.00 0.00 0.00 69 1009.7
20260506043036 16 200 0.0 0.0 0.00 0.00 0.00 66 1009.4
20260506041551 17 200 0.0 0.0 0.00 0.00 0.00 63 1009.2
20260506040038 18 200 0.0 0.0 0.00 0.00 0.00 61 1009.1
20260506034548 19 200 0.0 0.0 0.00 0.00 0.00 57 1008.9
20260506033036 20 200 0.0 1.6 0.00 0.00 0.00 54 1008.7
20260506031535 21 202 0.0 6.4 0.00 0.00 0.00 49 1008.4
20260506030037 21 286 0.0 1.6 0.00 0.00 0.00 48 1008.3
20260506024535 22 209 0.0 3.2 0.00 0.00 0.00 46 1008.1
20260506023033 22 219 0.0 6.4 0.00 0.00 0.00 43 1008.0
20260506021533 23 290 0.0 3.2 0.00 0.00 0.00 41 1007.8
20260506020032 23 262 0.0 4.8 0.00 0.00 0.00 40 1007.8
20260506014532 24 187 0.0 8.0 0.00 0.00 0.00 38 1007.6
20260506013046 25 339 0.0 6.4 0.00 0.00 0.00 37 1007.6
20260506011531 25 200 0.0 4.8 0.00 0.00 0.00 34 1007.5
20260506010033 26 265 0.0 4.8 0.00 0.00 0.00 32 1007.4
20260506004529 26 198 0.0 4.8 0.00 0.00 0.00 32 1007.5
20260506003029 26 263 0.0 9.7 0.00 0.00 0.00 32 1007.4
20260506001528 27 210 0.0 6.4 0.00 0.00 0.00 31 1007.5
20260506000027 27 198 0.0 4.8 0.00 0.00 0.00 30 1007.5
20260505234527 27 201 0.0 11.3 0.00 0.00 0.00 30 1007.6
20260505233028 27 155 0.0 6.4 0.00 0.00 0.00 31 1007.6
20260505231528 28 161 0.0 17.7 0.00 0.00 0.00 29 1007.6
20260505230025 28 294 0.0 6.4 0.00 0.00 0.00 28 1007.4
20260505224524 27 213 0.0 8.0 0.00 0.00 0.00 27 1007.6
20260505223022 28 134 0.0 12.9 0.00 0.00 0.00 29 1007.6
20260505221522 28 200 1.6 8.0 0.00 0.00 0.00 27 1007.7
20260505220031 28 182 0.0 8.0 0.00 0.00 0.00 28 1007.7